Regional Weather Roundup
Issued by NWS

Home | Current Version | Previous Version | Graphics & Text | Print | Product List | Glossary On
Versions: 1 2 3 4 5 6 7 8 9 10 11 12 13 14 15 16 17 18 19 20 21 22 23 24 25 26 27 28 29 30 31 32 33 34 35 36 37 38 39 40 41 42 43 44 45 46 47 48 49 50
000
ASUS45 KBOU 241107
RWRCO

WEATHER ROUNDUP FOR COLORADO
NATIONAL WEATHER SERVICE DENVER/BOULDER CO
400 AM MST SAT JAN 24 2015

NOTE: "FAIR" INDICATES FEW OR NO CLOUDS BELOW 12000 FEET WITH NO
SIGNIFICANT WEATHER AND/OR OBSTRUCTIONS TO VISIBILITY.

COZ001>005-013-030-031-241200-
...NORTHWEST COLORADO...

CITY           SKY/WX    TMP DP  RH WIND       PRES   REMARKS
CRAIG          PTCLDY     0  -4  83 CALM      30.42F
HAYDEN         PTCLDY     9   1  72 E12       30.39F WCI  -6
MEEKER         CLEAR     10   2  69 CALM      30.41R
MOUNT WERNER   NOT AVBL
STEAMBOAT SPGS PTCLDY     5   0  77 NE5       30.40S WCI  -4
WALDEN         PTCLDY     5   0  78 E5        30.32S WCI  -4
$$

COZ006>008-011-241200-
...WEST CENTRAL VALLEYS...

CITY           SKY/WX    TMP DP  RH WIND       PRES   REMARKS
GRAND JUNCTION CLEAR     21  13  71 E6        30.41R WCI  13
MONTROSE       PTCLDY    17   9  70 S6        30.44R WCI   9
EAGLE          PTCLDY     9   7  92 CALM      30.46R
RIFLE          CLEAR     18  10  71 SE5       30.43R WCI  11
DELTA          PTCLDY    21  12  69 CALM      30.42R
NUCLA          PTCLDY    19  12  73 S6        30.41R WCI  11
$$

COZ017>023-064>068-241200-
...SOUTHWEST COLORADO...

CITY           SKY/WX    TMP DP  RH WIND       PRES   REMARKS
DURANGO        CLEAR     18  13  80 N5        30.30F WCI  11
CORTEZ         CLEAR     16  12  84 CALM      30.31F
PAGOSA SPRINGS CLEAR     12  10  89 CALM      30.29F
TELLURIDE      NOT AVBL
WOLF CREEK PAS NOT AVBL
$$

COZ009-010-012-014-032>034-037-058>063-241200-
...CENTRAL COLORADO...

CITY           SKY/WX    TMP DP  RH WIND       PRES   REMARKS
ASPEN          PTCLDY    10   2  69 W3        30.36R
BUENA VISTA    PTCLDY    18  10  69 NW9       30.30R WCI   7
COPPER MTN     PTCLDY    19  10  68 W14       30.31S WCI   6
BERTHOUD PASS  FAIR      12   9  85 NW20      30.28S WCI  -6
COTTONWOOD PAS PTCLDY    27   9  46 N7        30.28R WCI  19
GUNNISON       PTCLDY   -11 N/A N/A S5        30.46R WCI -23
KREMMLING      PTCLDY     0  -6  78 CALM      30.44R
LEADVILLE      PTCLDY     7   3  84 NE6       30.30R WCI  -3
MONARCH PASS   PTCLDY    18   5  57 MISG      30.37S
SALIDA         NOT AVBL
SUNLIGHT       CLEAR     21   7  53 NW6       30.36R WCI  14
WILKERSON PASS PTCLDY    21  10  63 W13G18    30.28R WCI   9
$$

COZ069>075-241200-
...SAN LUIS VALLEY/SANGRE DE CRISTO MOUNTAINS...

CITY           SKY/WX    TMP DP  RH WIND       PRES   REMARKS
ALAMOSA        MOCLDY     0  -5  79 S6        30.30F WCI -12
LA VETA PASS   NOT AVBL
SAGUACHE       PTCLDY     9   3  78 SE3       30.31F
$$

COZ035-036-038>040-241200-
...NORTHERN COLORADO FRONT RANGE...

CITY           SKY/WX    TMP DP  RH WIND       PRES   REMARKS
DENVER INTL AP CLEAR     32  19  58 SW14      30.11S WCI  22
DMNS CITY PARK   N/A     32  17  53 S8        30.12S WCI  25
AURORA         CLEAR     29  22  74 S12       30.12R WCI  20
FRONT RANGE AP NOT AVBL
ERIE MUNI ARPT CLEAR     23  18  81 CALM      30.12R
BOULDER MUN AP CLEAR     32  14  47 CALM      30.10S
CENTENNIAL     CLEAR     35  17  47 SW14      30.12R WCI  26
BROOMFIELD     CLEAR     34  14  44 W7        30.12R WCI  28
FORT COLLINS   CLEAR     25  18  74 N8        30.12F WCI  16
LONGMONT       CLEAR     25  16  68 CALM      30.13S
$$

COZ041-046-047-076>085-087-088-241200-
...PIKES PEAK/PALMER DIVIDE AND SOUTHERN FOOTHILLS...

CITY           SKY/WX    TMP DP  RH WIND       PRES   REMARKS
COLO. SPRINGS  PTCLDY    24  17  74 N6        30.14F WCI  17
A. F. ACADEMY  CLEAR     17  11  78 N13       30.14F WCI   3
ELLICOTT       PTCLDY   N/A N/A N/A CALM      30.12F
FALCON         PTCLDY    22  13  67 W10       30.14F WCI  11
FORT CARSON    PTCLDY    21  15  77 NW6       30.12F WCI  14
LIMON          CLEAR     21  18  88 N10       30.14R WCI  10
MONUMENT HILL  CLEAR     25  14  63 SW13      30.14R WCI  13
TRINIDAD       PTCLDY    28  18  66 SW20      30.19F WCI  15
$$

COZ042>045-048>051-090-091-241200-
...NORTHEAST COLORADO...

CITY           SKY/WX    TMP DP  RH WIND       PRES   REMARKS
GREELEY ARPT   CLEAR     21  12  68 CALM      30.11S
AKRON          CLEAR     25  21  85 W12       30.10F WCI  14
BURLINGTON     CLEAR     30  24  78 W12       30.11F WCI  20
WRAY           PTCLDY    28  25  88 SW7       30.10F WCI  21
STERLING       CLEAR     28  25  86 SW8       30.10F WCI  20
HOLYOKE        PTCLDY    34  28  80 W14       30.09F WCI  24
FORT MORGAN    CLEAR     28  22  76 W8        30.12S WCI  20
$$

COZ086-089-092>099-241200-
...SOUTHEAST COLORADO...

CITY           SKY/WX    TMP DP  RH WIND       PRES   REMARKS
PUEBLO         PTCLDY    26  20  77 W8        30.16F WCI  18
LA JUNTA       CLEAR     31  23  72 SW16      30.15F WCI  20
LAMAR          PTCLDY    31  26  82 SW8       30.15F WCI  23
SPRINGFIELD      N/A     29  22  75 W12       30.17F WCI  19
$$



USA.gov is the U.S. government's official web portal to all federal, state and local government web resources and services.